This is the latest recevied weather packets stored in our database for station/object WD7OO. If no packets are shown the sender has not sent any weather packets the latest 10 day(s).
| Time | Temp. | Humidity | Pressure | Rain* | Wind** | Luminosity | Snow |
|---|---|---|---|---|---|---|---|
| 1778078079 | 10.56° C | 47% | 1014.2 hPa | 0 mm | - | 304 W/m² | - |
| 1778077778 | 10.56° C | 44% | 1014.1 hPa | 0 mm | - | 333 W/m² | - |
| 1778077475 | 10° C | 47% | 1014.3 hPa | 0 mm | - | 365 W/m² | - |
| 1778077173 | 10.56° C | 50% | 1014.1 hPa | 0 mm | - | 295 W/m² | - |
| 1778076871 | 10.56° C | 44% | 1014 hPa | 0 mm | - | 293 W/m² | - |
| 1778076569 | 10° C | 49% | 1014 hPa | 0 mm | - | 267 W/m² | - |
| 1778076266 | 10° C | 49% | 1013.9 hPa | 0 mm | - | 237 W/m² | - |
| 1778075963 | 10° C | 49% | 1013.9 hPa | 0 mm | - | 186 W/m² | - |
| 1778075660 | 10° C | 48% | 1013.8 hPa | 0 mm | - | 172 W/m² | - |
| 1778075356 | 10° C | 45% | 1013.8 hPa | 0 mm | - | 217 W/m² | - |
| 1778075052 | 10° C | 49% | 1013.7 hPa | 0 mm | - | 208 W/m² | - |
| 1778074749 | 10° C | 47% | 1013.6 hPa | 0 mm | - | 199 W/m² | - |
| 1778074446 | 10° C | 46% | 1013.4 hPa | 0 mm | - | 264 W/m² | - |
| 1778074143 | 10° C | 47% | 1013.2 hPa | 0 mm | - | 215 W/m² | - |
| 1778073840 | 10.56° C | 51% | 1013.2 hPa | 0 mm | - | 290 W/m² | - |
| 1778073538 | 10.56° C | 51% | 1013.4 hPa | 0 mm | - | 423 W/m² | - |
| 1778073234 | 10° C | 51% | 1013.1 hPa | 0 mm | - | 355 W/m² | - |
| 1778072931 | 10° C | 53% | 1013.2 hPa | 0 mm | - | 319 W/m² | - |
| 1778072627 | 9.44° C | 57% | 1013.1 hPa | 0 mm | - | 252 W/m² | - |
| 1778072325 | 9.44° C | 54% | 1013.1 hPa | 0 mm | - | 179 W/m² | - |
| 1778072023 | 9.44° C | 55% | 1013 hPa | 0 mm | - | 203 W/m² | - |
| 1778071721 | 8.89° C | 57% | 1013 hPa | 0 mm | - | 200 W/m² | - |
| 1778071418 | 8.89° C | 59% | 1013.1 hPa | 0 mm | - | 212 W/m² | - |
| 1778071116 | 8.33° C | 63% | 1013.1 hPa | 0 mm | - | 185 W/m² | - |
| 1778070814 | 8.33° C | 62% | 1013.2 hPa | 0 mm | - | 209 W/m² | - |
* Rain latest hour (hover to see other rain measurements)
** Current wind speed in m/s (hover to see current wind gust speed)